Time,TemperatureF,DewpointF,PressureIn,WindDirection,WindDirectionDegrees,WindSpeedMPH,WindSpeedGustMPH,Humidity,HourlyPrecipIn,Conditions,Clouds,dailyrainin,SoftwareType,DateUTC
2013-05-23 00:03:00,61.0,59.0,-100.00,SW,232,4.0,7.0,94,0.00,,,0.33,,2013-05-23 04:03:00,
2013-05-23 00:12:00,61.0,59.0,-100.00,SW,232,4.0,7.0,94,0.00,,,0.33,,2013-05-23 04:12:00,
2013-05-23 00:23:00,61.0,59.0,-100.00,West,270,4.0,5.0,95,0.00,,,0.33,,2013-05-23 04:23:00,
2013-05-23 00:33:00,60.0,59.0,-100.00,SW,223,2.0,3.0,95,0.00,,,0.33,,2013-05-23 04:33:00,
2013-05-23 00:43:00,60.0,59.0,-100.00,SW,223,2.0,3.0,95,0.00,,,0.33,,2013-05-23 04:43:00,
2013-05-23 00:52:00,60.0,59.0,-100.00,WNW,285,2.0,4.0,96,0.00,,,0.33,,2013-05-23 04:52:00,
2013-05-23 01:02:00,61.0,60.0,-100.00,WSW,246,4.0,8.0,94,0.00,,,0.33,,2013-05-23 05:02:00,
2013-05-23 01:11:00,61.0,60.0,-100.00,WSW,246,4.0,8.0,94,0.00,,,0.33,,2013-05-23 05:11:00,
2013-05-23 01:22:00,61.0,59.0,-100.00,WSW,246,4.0,8.0,95,0.71,,,0.35,,2013-05-23 05:22:00,
2013-05-23 01:32:00,61.0,59.0,-100.00,WSW,246,4.0,8.0,95,0.71,,,0.35,,2013-05-23 05:32:00,
2013-05-23 01:43:00,61.0,60.0,-100.00,NE,55,1.0,2.0,96,0.00,,,0.41,,2013-05-23 05:43:00,
2013-05-23 01:52:00,61.0,59.0,-100.00,ESE,109,0.0,1.0,95,0.00,,,0.41,,2013-05-23 05:52:00,
2013-05-23 02:02:00,61.0,59.0,-100.00,SSE,160,1.0,2.0,94,0.00,,,0.41,,2013-05-23 06:02:00,
2013-05-23 02:12:00,61.0,59.0,-100.00,SSE,160,1.0,2.0,94,0.00,,,0.41,,2013-05-23 06:12:00,
2013-05-23 02:22:00,60.0,59.0,-100.00,SE,141,0.0,1.0,95,0.00,,,0.41,,2013-05-23 06:22:00,
2013-05-23 02:32:00,60.0,59.0,-100.00,NNE,17,0.0,1.0,96,0.00,,,0.41,,2013-05-23 06:32:00,
2013-05-23 02:42:00,60.0,59.0,-100.00,NNE,17,0.0,1.0,96,0.00,,,0.41,,2013-05-23 06:42:00,
2013-05-23 02:52:00,61.0,60.0,-100.00,SW,229,3.0,4.0,96,0.00,,,0.41,,2013-05-23 06:52:00,
2013-05-23 03:02:00,60.0,59.0,-100.00,SW,229,1.0,2.0,96,0.00,,,0.41,,2013-05-23 07:02:00,
2013-05-23 03:11:00,60.0,59.0,-100.00,SW,229,1.0,2.0,96,0.00,,,0.41,,2013-05-23 07:11:00,
2013-05-23 03:22:00,61.0,59.0,-100.00,WNW,294,1.0,2.0,96,0.00,,,0.41,,2013-05-23 07:22:00,
2013-05-23 03:32:00,61.0,59.0,-100.00,WNW,294,1.0,2.0,96,0.00,,,0.41,,2013-05-23 07:32:00,
2013-05-23 03:42:00,61.0,59.0,-100.00,WNW,294,1.0,2.0,96,0.00,,,0.41,,2013-05-23 07:42:00,
2013-05-23 03:59:00,61.0,59.0,-100.00,WSW,247,0.0,0.0,96,0.00,,,0.41,,2013-05-23 07:59:00,
2013-05-23 04:12:00,60.0,59.0,-100.00,WNW,302,0.0,0.0,96,0.00,,,0.41,,2013-05-23 08:12:00,
2013-05-23 04:22:00,60.0,59.0,-100.00,NNW,328,1.0,2.0,96,0.00,,,0.41,,2013-05-23 08:22:00,
2013-05-23 04:32:00,60.0,59.0,-100.00,NW,320,1.0,2.0,96,0.00,,,0.41,,2013-05-23 08:32:00,
2013-05-23 04:42:00,60.0,59.0,-100.00,NW,320,1.0,2.0,96,0.00,,,0.41,,2013-05-23 08:42:00,
2013-05-23 04:52:00,60.0,59.0,-100.00,NE,55,1.0,2.0,96,0.00,,,0.41,,2013-05-23 08:52:00,
2013-05-23 05:02:00,60.0,59.0,-100.00,NW,318,0.0,1.0,97,0.00,,,0.41,,2013-05-23 09:02:00,
2013-05-23 05:11:00,60.0,59.0,-100.00,NW,318,0.0,1.0,97,0.00,,,0.41,,2013-05-23 09:11:00,
2013-05-23 05:22:00,60.0,60.0,-100.00,NW,315,2.0,3.0,97,0.00,,,0.41,,2013-05-23 09:22:00,
2013-05-23 05:33:00,60.0,59.0,-100.00,SW,232,0.0,1.0,97,0.00,,,0.41,,2013-05-23 09:33:00,
2013-05-23 05:42:00,60.0,59.0,-100.00,SW,232,0.0,1.0,97,0.00,,,0.41,,2013-05-23 09:42:00,
2013-05-23 05:53:00,60.0,59.0,-100.00,ESE,123,0.0,1.0,97,0.00,,,0.41,,2013-05-23 09:53:00,
2013-05-23 06:03:00,60.0,59.0,-100.00,ESE,123,0.0,1.0,97,0.00,,,0.41,,2013-05-23 10:03:00,
2013-05-23 06:13:00,60.0,59.0,-100.00,ESE,123,0.0,1.0,97,0.00,,,0.41,,2013-05-23 10:13:00,
2013-05-23 06:22:00,60.0,59.0,-100.00,WSW,243,1.0,2.0,97,0.00,,,0.41,,2013-05-23 10:22:00,
2013-05-23 06:32:00,60.0,59.0,-100.00,WNW,285,0.0,0.0,97,0.00,,,0.41,,2013-05-23 10:32:00,
2013-05-23 06:42:00,60.0,59.0,-100.00,WNW,285,0.0,0.0,97,0.00,,,0.41,,2013-05-23 10:42:00,
2013-05-23 06:52:00,61.0,60.0,-100.00,West,264,1.0,2.0,98,0.00,,,0.41,,2013-05-23 10:52:00,
2013-05-23 07:02:00,61.0,60.0,-100.00,West,277,2.0,3.0,97,0.00,,,0.41,,2013-05-23 11:02:00,
2013-05-23 07:12:00,61.0,60.0,-100.00,West,277,2.0,3.0,97,0.00,,,0.41,,2013-05-23 11:12:00,
2013-05-23 07:22:00,60.0,60.0,-100.00,SSW,209,0.0,1.0,97,0.00,,,0.41,,2013-05-23 11:22:00,
2013-05-23 07:32:00,60.0,60.0,-100.00,South,182,0.0,0.0,98,0.00,,,0.41,,2013-05-23 11:32:00,
2013-05-23 07:42:00,60.0,60.0,-100.00,South,182,0.0,0.0,98,0.00,,,0.41,,2013-05-23 11:42:00,
2013-05-23 07:52:00,60.0,60.0,-100.00,WSW,257,0.0,1.0,98,0.00,,,0.41,,2013-05-23 11:52:00,
2013-05-23 08:01:00,60.0,60.0,-100.00,WSW,243,1.0,2.0,98,0.00,,,0.41,,2013-05-23 12:01:00,
2013-05-23 08:12:00,60.0,60.0,-100.00,WSW,243,1.0,2.0,98,0.00,,,0.41,,2013-05-23 12:12:00,
2013-05-23 08:22:00,60.0,60.0,-100.00,ESE,110,0.0,1.0,98,0.00,,,0.41,,2013-05-23 12:22:00,
2013-05-23 08:32:00,60.0,60.0,-100.00,ESE,110,0.0,1.0,98,0.00,,,0.41,,2013-05-23 12:32:00,
2013-05-23 08:42:00,60.0,60.0,-100.00,ESE,110,0.0,1.0,98,0.00,,,0.41,,2013-05-23 12:42:00,
2013-05-23 08:52:00,61.0,60.0,-100.00,South,191,1.0,2.0,98,0.00,,,0.41,,2013-05-23 12:52:00,
2013-05-23 09:02:00,62.0,61.0,-100.00,SW,222,1.0,2.0,98,0.00,,,0.41,,2013-05-23 13:02:00,
2013-05-23 09:11:00,62.0,61.0,-100.00,SW,222,1.0,2.0,98,0.00,,,0.41,,2013-05-23 13:11:00,
2013-05-23 09:22:00,61.0,61.0,-100.00,SW,217,1.0,2.0,97,0.00,,,0.41,,2013-05-23 13:22:00,
2013-05-23 09:32:00,61.0,61.0,-100.00,SW,217,1.0,2.0,97,0.00,,,0.41,,2013-05-23 13:32:00,
2013-05-23 09:42:00,61.0,61.0,-100.00,SW,217,1.0,2.0,97,0.00,,,0.41,,2013-05-23 13:42:00,
2013-05-23 09:52:00,62.0,61.0,-100.00,SW,217,1.0,2.0,98,0.00,,,0.41,,2013-05-23 13:52:00,
2013-05-23 10:02:00,62.0,61.0,-100.00,SW,230,1.0,2.0,98,0.00,,,0.41,,2013-05-23 14:02:00,
2013-05-23 10:11:00,62.0,61.0,-100.00,SW,230,1.0,2.0,98,0.00,,,0.41,,2013-05-23 14:11:00,
2013-05-23 10:21:00,62.0,61.0,-100.00,WSW,253,2.0,4.0,98,0.00,,,0.41,,2013-05-23 14:21:00,
2013-05-23 10:32:00,63.0,62.0,-100.00,ESE,123,1.0,2.0,97,0.00,,,0.41,,2013-05-23 14:32:00,
2013-05-23 10:42:00,63.0,62.0,-100.00,ESE,123,1.0,2.0,97,0.00,,,0.41,,2013-05-23 14:42:00,
2013-05-23 10:52:00,64.0,62.0,-100.00,SW,234,2.0,4.0,93,0.00,,,0.41,,2013-05-23 14:52:00,
2013-05-23 11:01:00,64.0,60.0,-100.00,WSW,241,4.0,5.0,88,0.00,,,0.41,,2013-05-23 15:01:00,
2013-05-23 11:11:00,64.0,60.0,-100.00,WSW,241,4.0,5.0,88,0.00,,,0.41,,2013-05-23 15:11:00,
2013-05-23 11:22:00,67.0,63.0,-100.00,WSW,250,3.0,4.0,85,0.00,,,0.41,,2013-05-23 15:22:00,
2013-05-23 11:33:00,67.0,63.0,-100.00,WSW,250,3.0,4.0,85,0.00,,,0.41,,2013-05-23 15:33:00,
2013-05-23 11:43:00,67.0,63.0,-100.00,WSW,250,3.0,4.0,85,0.00,,,0.41,,2013-05-23 15:43:00,
2013-05-23 11:53:00,68.0,60.0,-100.00,SW,217,3.0,4.0,76,0.00,,,0.41,,2013-05-23 15:53:00,
2013-05-23 12:03:00,68.0,60.0,-100.00,SW,217,3.0,4.0,76,0.00,,,0.41,,2013-05-23 16:03:00,
2013-05-23 12:13:00,68.0,60.0,-100.00,SW,217,3.0,4.0,76,0.00,,,0.41,,2013-05-23 16:13:00,
2013-05-23 12:23:00,70.0,61.0,-100.00,WSW,246,5.0,9.0,74,0.00,,,0.41,,2013-05-23 16:23:00,
2013-05-23 12:34:00,69.0,60.0,-100.00,SW,219,5.0,8.0,72,0.00,,,0.41,,2013-05-23 16:34:00,
2013-05-23 12:42:00,69.0,60.0,-100.00,SW,219,5.0,8.0,72,0.00,,,0.41,,2013-05-23 16:42:00,
2013-05-23 12:53:00,70.0,61.0,-100.00,SSE,168,3.0,9.0,72,0.00,,,0.41,,2013-05-23 16:53:00,
2013-05-23 13:03:00,69.0,59.0,-100.00,South,176,2.0,7.0,69,0.00,,,0.41,,2013-05-23 17:03:00,
2013-05-23 13:12:00,69.0,59.0,-100.00,South,176,2.0,7.0,69,0.00,,,0.41,,2013-05-23 17:12:00,
2013-05-23 13:23:00,69.0,60.0,-100.00,SW,220,1.0,2.0,73,0.00,,,0.41,,2013-05-23 17:23:00,
2013-05-23 13:33:00,69.0,60.0,-100.00,SW,220,1.0,2.0,73,0.00,,,0.41,,2013-05-23 17:33:00,
2013-05-23 13:43:00,69.0,60.0,-100.00,SW,220,1.0,2.0,73,0.00,,,0.41,,2013-05-23 17:43:00,
2013-05-23 13:53:00,72.0,61.0,-100.00,SSW,195,2.0,7.0,68,0.00,,,0.41,,2013-05-23 17:53:00,
2013-05-23 14:01:00,72.0,61.0,-100.00,SSW,195,2.0,7.0,68,0.00,,,0.41,,2013-05-23 18:01:00,
2013-05-23 14:11:00,72.0,59.0,-100.00,SSW,199,2.0,5.0,64,0.00,,,0.41,,2013-05-23 18:11:00,
2013-05-23 14:22:00,72.0,60.0,-100.00,SW,223,4.0,9.0,64,0.00,,,0.41,,2013-05-23 18:22:00,
2013-05-23 14:32:00,72.0,60.0,-100.00,SW,223,4.0,9.0,64,0.00,,,0.41,,2013-05-23 18:32:00,
2013-05-23 14:42:00,72.0,60.0,-100.00,SW,223,4.0,9.0,64,0.00,,,0.41,,2013-05-23 18:42:00,
2013-05-23 14:52:00,72.0,57.0,-100.00,SW,223,3.0,6.0,60,0.00,,,0.41,,2013-05-23 18:52:00,
2013-05-23 15:01:00,71.0,58.0,-100.00,SW,227,4.0,7.0,63,0.00,,,0.41,,2013-05-23 19:01:00,
2013-05-23 15:11:00,71.0,58.0,-100.00,SW,227,4.0,7.0,63,0.00,,,0.41,,2013-05-23 19:11:00,
2013-05-23 15:21:00,65.0,59.0,-100.00,WSW,243,10.0,15.0,81,0.38,,,0.43,,2013-05-23 19:21:00,
2013-05-23 15:32:00,66.0,61.0,-100.00,ESE,103,2.0,5.0,84,0.00,,,0.47,,2013-05-23 19:32:00,
2013-05-23 15:42:00,66.0,61.0,-100.00,ESE,103,2.0,5.0,84,0.00,,,0.47,,2013-05-23 19:42:00,
2013-05-23 15:52:00,68.0,63.0,-100.00,SW,234,3.0,4.0,84,0.00,,,0.47,,2013-05-23 19:52:00,
2013-05-23 16:02:00,67.0,63.0,-100.00,SSW,195,1.0,3.0,85,0.00,,,0.47,,2013-05-23 20:02:00,
2013-05-23 16:12:00,67.0,63.0,-100.00,SSW,195,1.0,3.0,85,0.00,,,0.47,,2013-05-23 20:12:00,
2013-05-23 16:22:00,71.0,63.0,-100.00,SE,138,1.0,2.0,77,0.00,,,0.47,,2013-05-23 20:22:00,
2013-05-23 16:32:00,69.0,60.0,-100.00,WSW,253,8.0,11.0,72,0.00,,,0.47,,2013-05-23 20:32:00,
2013-05-23 16:42:00,69.0,60.0,-100.00,WSW,253,8.0,11.0,72,0.00,,,0.47,,2013-05-23 20:42:00,
2013-05-23 16:52:00,66.0,55.0,-100.00,South,184,2.0,5.0,67,0.00,,,0.47,,2013-05-23 20:52:00,
2013-05-23 17:01:00,66.0,55.0,-100.00,West,267,10.0,13.0,68,0.00,,,0.47,,2013-05-23 21:01:00,
2013-05-23 17:11:00,66.0,55.0,-100.00,West,267,10.0,13.0,68,0.00,,,0.47,,2013-05-23 21:11:00,
2013-05-23 17:22:00,65.0,57.0,-100.00,West,270,14.0,17.0,76,0.23,,,0.49,,2013-05-23 21:22:00,
2013-05-23 17:32:00,61.0,58.0,-100.00,West,261,2.0,4.0,90,0.00,,,0.56,,2013-05-23 21:32:00,
2013-05-23 17:43:00,61.0,58.0,-100.00,West,261,2.0,4.0,90,0.00,,,0.56,,2013-05-23 21:43:00,
2013-05-23 17:53:00,61.0,59.0,-100.00,ENE,62,2.0,3.0,93,0.28,,,0.62,,2013-05-23 21:53:00,
2013-05-23 18:03:00,62.0,60.0,-100.00,SE,137,0.0,2.0,94,0.00,,,0.65,,2013-05-23 22:03:00,
2013-05-23 18:12:00,62.0,60.0,-100.00,SE,137,0.0,2.0,94,0.00,,,0.65,,2013-05-23 22:12:00,
2013-05-23 18:23:00,63.0,59.0,-100.00,NNE,30,2.0,3.0,86,0.00,,,0.62,,2013-05-23 22:23:00,
2013-05-23 18:33:00,63.0,60.0,-100.00,West,261,1.0,2.0,90,0.00,,,0.62,,2013-05-23 22:33:00,
2013-05-23 18:42:00,63.0,60.0,-100.00,West,261,1.0,2.0,90,0.00,,,0.62,,2013-05-23 22:42:00,
2013-05-23 18:52:00,63.0,61.0,-100.00,WNW,285,2.0,3.0,91,0.33,,,0.64,,2013-05-23 22:52:00,
2013-05-23 19:02:00,62.0,60.0,-100.00,ESE,113,1.0,2.0,91,0.13,,,0.72,,2013-05-23 23:02:00,
2013-05-23 19:12:00,62.0,60.0,-100.00,ESE,113,1.0,2.0,91,0.13,,,0.72,,2013-05-23 23:12:00,
2013-05-23 19:22:00,62.0,59.0,-100.00,East,95,2.0,3.0,93,0.10,,,0.74,,2013-05-23 23:22:00,
2013-05-23 19:32:00,61.0,60.0,-100.00,East,93,2.0,4.0,94,0.20,,,0.81,,2013-05-23 23:32:00,
2013-05-23 19:42:00,61.0,60.0,-100.00,East,93,2.0,4.0,94,0.20,,,0.81,,2013-05-23 23:42:00,
2013-05-23 19:52:00,61.0,59.0,-100.00,ESE,112,2.0,5.0,94,0.00,,,0.83,,2013-05-23 23:52:00,
2013-05-23 20:01:00,61.0,59.0,-100.00,NE,37,2.0,4.0,92,0.00,,,0.83,,2013-05-24 00:01:00,
2013-05-23 20:12:00,61.0,59.0,-100.00,NE,37,2.0,4.0,92,0.00,,,0.83,,2013-05-24 00:12:00,
2013-05-23 20:21:00,60.0,58.0,-100.00,NW,325,3.0,4.0,92,0.00,,,0.83,,2013-05-24 00:21:00,
2013-05-23 20:32:00,60.0,58.0,-100.00,NE,54,2.0,4.0,91,0.00,,,0.83,,2013-05-24 00:32:00,
2013-05-23 20:42:00,60.0,58.0,-100.00,NE,54,2.0,4.0,91,0.00,,,0.83,,2013-05-24 00:42:00,
2013-05-23 20:52:00,60.0,57.0,-100.00,East,93,4.0,7.0,88,0.11,,,0.84,,2013-05-24 00:52:00,
2013-05-23 21:01:00,59.0,57.0,-100.00,NE,55,2.0,4.0,91,0.00,,,0.88,,2013-05-24 01:01:00,
2013-05-23 21:12:00,59.0,57.0,-100.00,NE,55,2.0,4.0,91,0.00,,,0.88,,2013-05-24 01:12:00,
2013-05-23 21:22:00,59.0,57.0,-100.00,ESE,120,2.0,4.0,92,0.00,,,0.88,,2013-05-24 01:22:00,
2013-05-23 21:32:00,58.0,56.0,-100.00,NW,318,3.0,5.0,90,0.00,,,0.81,,2013-05-24 01:32:00,
2013-05-23 21:42:00,58.0,56.0,-100.00,NW,318,3.0,5.0,90,0.00,,,0.81,,2013-05-24 01:42:00,
2013-05-23 21:52:00,58.0,55.0,-100.00,NE,34,1.0,2.0,90,0.00,,,0.77,,2013-05-24 01:52:00,
2013-05-23 22:02:00,58.0,55.0,-100.00,NE,34,1.0,2.0,90,0.00,,,0.77,,2013-05-24 02:02:00,
2013-05-23 22:12:00,58.0,55.0,-100.00,NE,34,1.0,2.0,90,0.00,,,0.77,,2013-05-24 02:12:00,
2013-05-23 22:22:00,57.0,54.0,-100.00,NW,326,4.0,5.0,90,0.00,,,0.72,,2013-05-24 02:22:00,
2013-05-23 22:32:00,58.0,54.0,-100.00,SE,145,1.0,3.0,88,0.00,,,0.71,,2013-05-24 02:32:00,
2013-05-23 22:42:00,58.0,54.0,-100.00,SE,145,1.0,3.0,88,0.00,,,0.71,,2013-05-24 02:42:00,
2013-05-23 22:52:00,58.0,54.0,-100.00,NE,54,3.0,6.0,87,0.00,,,0.71,,2013-05-24 02:52:00,
2013-05-23 23:02:00,57.0,54.0,-100.00,NE,52,1.0,2.0,89,0.00,,,0.71,,2013-05-24 03:02:00,
2013-05-23 23:11:00,57.0,54.0,-100.00,NE,52,1.0,2.0,89,0.00,,,0.71,,2013-05-24 03:11:00,
2013-05-23 23:22:00,57.0,53.0,-100.00,NE,34,2.0,4.0,86,0.00,,,0.71,,2013-05-24 03:22:00,
2013-05-23 23:33:00,57.0,54.0,-100.00,West,264,1.0,3.0,88,0.00,,,0.71,,2013-05-24 03:33:00,
2013-05-23 23:42:00,57.0,54.0,-100.00,West,264,1.0,3.0,88,0.00,,,0.71,,2013-05-24 03:42:00,
2013-05-23 23:53:00,57.0,54.0,-100.00,NNW,346,2.0,3.0,88,0.00,,,0.67,,2013-05-24 03:53:00,